Port Isabel, TX

8:46 AM CST on December 05, 2016 (GMT -0600)
Port Isabel-Cameron County

Weather History for KPIL - February, 2013

Change the Weather History Date:

Thursday, February 21, 2013

  Actual Average (KBRO) Record (KBRO)
Temperature  
Mean Temperature 80 °F 65 °F  
Max Temperature 86 °F 75 °F 90 °F (1909)
Min Temperature 72 °F 56 °F 34 °F (1921)
Degree Days  
Heating Degree Days 0 3  
Month to date heating degree days 86  
Since 1 July heating degree days 485  
Cooling Degree Days 14 3  
Month to date cooling degree days 58  
Year to date cooling degree days 117  
Growing Degree Days 30 (Base 50)    
Moisture  
Dew Point 69 °F    
Average Humidity 80    
Maximum Humidity 88    
Minimum Humidity 57    
Precipitation  
Precipitation 0.00 in 0.02 in 1.61 in (1886)
Month to date precipitation 0.86  
Year to date precipitation 2.13  
Sea Level Pressure  
Sea Level Pressure 29.69 in    
Wind  
Wind Speed 19 mph (SSE)    
Max Wind Speed 28 mph    
Max Gust Speed 40 mph    
Visibility 6 miles    
Events      
T = Trace of Precipitation, MM = Missing Value Source: NWS Daily Summary

Daily Weather History Graph

Daily Weather History Graph

Search for Another Location

Airport or City:

Trip Planner

Search our weather history database for the weather conditions in past years. The results will help you decide how hot, cold, wet, or windy it might be!

Date:

Astronomy

Feb. 21, 2013 Rise Set
Actual Time 6:59 AM CST 6:26 PM CST
Civil Twilight 6:36 AM CST 6:49 PM CST
Nautical Twilight 6:09 AM CST 7:16 PM CST
Astronomical Twilight 5:42 AM CST 7:43 PM CST
Moon 2:56 PM CST (2/21) 3:50 AM CST (2/21)
Length of Visible Light 12h 13m
Length of Day
11h 26m
Waxing Gibbous, 84% of the Moon is Illuminated
Feb 21
Waxing Gibbous
Feb 25
Full
Mar 4
Last Quarter
Mar 11
New
Mar 19
First Quarter

Hourly Weather History & Observations

Time (CST) Temp. Heat Index Dew Point Humidity Pressure Visibility Wind Dir Wind Speed Gust Speed Precip Events Conditions
12:09 AM 75.2 °F - 69.8 °F 83% 29.69 in 8.0 mi SSE 21.9 mph 31.1 mph N/A   Overcast
12:53 AM 75.0 °F - 69.1 °F 82% 29.66 in 7.0 mi SSE 27.6 mph 34.5 mph N/A   Overcast
1:01 AM 73.4 °F - 69.8 °F 88% 29.66 in 7.0 mi SSE 24.2 mph 33.4 mph N/A   Overcast
1:13 AM 73.4 °F - 68.0 °F 83% 29.66 in 7.0 mi SSE 25.3 mph 33.4 mph N/A   Mostly Cloudy
1:30 AM 73.4 °F - 69.8 °F 88% 29.66 in 7.0 mi South 21.9 mph 34.5 mph N/A   Scattered Clouds
1:53 AM 73.9 °F - 69.1 °F 85% 29.65 in 7.0 mi SSE 24.2 mph 34.5 mph N/A   Partly Cloudy
2:53 AM 75.0 °F - 68.0 °F 79% 29.62 in 7.0 mi SSE 27.6 mph 40.3 mph N/A   Clear
3:53 AM 75.0 °F - 69.1 °F 82% 29.61 in 7.0 mi South 26.5 mph 39.1 mph N/A   Partly Cloudy
4:53 AM 73.9 °F - 68.0 °F 82% 29.60 in 7.0 mi South 26.5 mph 38.0 mph N/A   Partly Cloudy
5:53 AM 73.9 °F - 68.0 °F 82% 29.61 in 7.0 mi South 24.2 mph 33.4 mph N/A   Clear
6:53 AM 73.9 °F - 69.1 °F 85% 29.63 in 7.0 mi South 24.2 mph 36.8 mph N/A   Partly Cloudy
7:15 AM 73.4 °F - 69.8 °F 88% 29.64 in 6.0 mi South 25.3 mph 34.5 mph N/A   Haze
8:53 AM 77.0 °F - 69.1 °F 76% 29.70 in 6.0 mi South 20.7 mph 28.8 mph N/A   Haze
9:37 AM 78.8 °F - 69.8 °F 74% 29.70 in 6.0 mi South 21.9 mph 32.2 mph N/A   Haze
9:53 AM 79.0 °F - 69.1 °F 72% 29.70 in 6.0 mi South 21.9 mph 34.5 mph N/A   Haze
10:53 AM 82.9 °F 86.5 °F 69.1 °F 63% 29.69 in 6.0 mi South 24.2 mph 39.1 mph N/A   Haze
11:53 AM 86.0 °F 90.1 °F 69.1 °F 57% 29.68 in 7.0 mi South 23.0 mph 33.4 mph N/A   Clear
12:53 PM 86.0 °F 90.7 °F 70.0 °F 59% 29.65 in 7.0 mi South 25.3 mph 32.2 mph N/A   Clear
1:53 PM 84.9 °F 88.8 °F 69.1 °F 59% 29.65 in 7.0 mi South 18.4 mph 31.1 mph N/A   Clear
2:53 PM 82.9 °F 86.5 °F 69.1 °F 63% 29.64 in 7.0 mi South 15.0 mph 24.2 mph N/A   Clear
3:53 PM 82.0 °F 85.5 °F 69.1 °F 65% 29.64 in 7.0 mi SSE 16.1 mph 21.9 mph N/A   Clear
4:53 PM 80.1 °F 83.2 °F 70.0 °F 71% 29.66 in 7.0 mi SSE 13.8 mph - N/A   Clear
5:53 PM 78.1 °F - 70.0 °F 76% 29.68 in 7.0 mi SSE 12.7 mph - N/A   Clear
6:53 PM 77.0 °F - 70.0 °F 79% 29.70 in 7.0 mi SSE 8.1 mph - N/A   Clear
7:53 PM 73.9 °F - 69.1 °F 85% 29.73 in 7.0 mi East 4.6 mph - N/A   Scattered Clouds
8:02 PM 73.4 °F - 69.8 °F 88% 29.73 in 6.0 mi East 5.8 mph - N/A   Mostly Cloudy
8:21 PM 73.4 °F - 69.8 °F 88% 29.75 in 6.0 mi East 4.6 mph - N/A   Overcast
8:29 PM 73.4 °F - 69.8 °F 88% 29.75 in 6.0 mi NE 4.6 mph - N/A   Haze
8:53 PM 73.9 °F - 70.0 °F 87% 29.76 in 6.0 mi Calm Calm - N/A   Overcast
9:13 PM 73.4 °F - 69.8 °F 88% 29.77 in 6.0 mi Calm Calm - N/A   Haze
9:53 PM 73.9 °F - 69.1 °F 85% 29.78 in 6.0 mi ENE 3.5 mph - N/A   Haze
10:03 PM 73.4 °F - 69.8 °F 88% 29.77 in 6.0 mi Calm Calm - N/A   Haze
10:19 PM 73.4 °F - 69.8 °F 88% 29.78 in 5.0 mi ENE 4.6 mph - N/A   Overcast
10:53 PM 73.0 °F - 69.1 °F 87% 29.78 in 5.0 mi East 5.8 mph - N/A   Overcast
11:09 PM 73.4 °F - 69.8 °F 88% 29.77 in 5.0 mi East 8.1 mph - N/A   Overcast
11:24 PM 73.4 °F - 69.8 °F 88% 29.78 in 5.0 mi ENE 5.8 mph - N/A   Overcast
11:53 PM 72.0 °F - 68.0 °F 87% 29.78 in 4.0 mi NNE 8.1 mph - N/A   Overcast